Regional Weather Roundup
Issued by NWS

Home | Current Version | Previous Version | Text Only | Print | Product List | Glossary On
Versions: 1 2 3 4 5 6 7 8 9 10 11 12 13 14 15 16 17 18 19 20 21 22 23 24 25 26 27 28 29 30 31 32 33 34 35 36 37 38 39 40 41 42 43 44 45 46 47 48 49 50
000
ASUS43 KBIS 222331
RWRND
NORTH DAKOTA REGIONAL WEATHER ROUNDUP
NATIONAL WEATHER SERVICE EASTERN NORTH DAKOTA/GRAND FORKS ND
500 PM CST THU FEB 22 2018

  NOTE: "FAIR" INDICATES FEW OR NO CLOUDS BELOW 12,000 FEET WITH NO
  SIGNIFICANT WEATHER AND/OR OBSTRUCTIONS TO VISIBILITY.

NDZ001>003-009>011-017-230000-
...NORTHWEST NORTH DAKOTA...

CITY           SKY/WX    TMP DP  RH WIND       PRES   REMARKS
WILLISTON      FAIR       9  -1  64 W7        30.21F WCI  -2
MINOT          FAIR      17   6  62 E8        30.19F WCI   7
MINOT AFB      FAIR      16   5  61 S5        30.18F WCI   9
$$

NDZ018>021-031>035-040>046-230000-
...SOUTHWEST NORTH DAKOTA...

CITY           SKY/WX    TMP DP  RH WIND       PRES   REMARKS
BISMARCK       FAIR      17   8  67 E8        30.20F WCI   7
DICKINSON      FAIR      20   5  52 NW6       30.10F WCI  12
GARRISON         N/A     13   2  61 CALM      30.19F
HETTINGER      CLOUDY    15   5  64 NE3       30.11S
$$

NDZ004>008-012>016-024-026-027-054-230000-
...NORTHEAST NORTH DAKOTA...

CITY           SKY/WX    TMP DP  RH WIND       PRES   REMARKS
GRAND FORKS    FAIR      18  12  77 S9        30.32F WCI   7
GRAND FORKS AF FAIR      17  10  72 S9        30.31F WCI   6
DEVILS LAKE    FAIR      15   7  70 SW6       30.26F WCI   6
$$

NDZ022-023-025-028>030-036>039-047>053-230000-
...SOUTHEAST NORTH DAKOTA...

CITY           SKY/WX    TMP DP  RH WIND       PRES   REMARKS
JAMESTOWN      FAIR      22  15  75 SE8       30.22F WCI  12
FARGO          CLOUDY    23  15  71 SE8       30.32F WCI  14
WAHPETON       CLOUDY    25  16  68 SE7       30.32F WCI  17
$$




USA.gov is the U.S. government's official web portal to all federal, state and local government web resources and services.